Temp
64 61 60 60 60 59 58 57 57 56 56 56 56 56 56 56 55 54 54 59 58 57 53 54 55 58 54 52 52 51 51 50 49 52 52 56 55 56 58 58 59 59 61
64 61 61 60 58 56 56 56 57 56 56 58 55 55 55 56 54 53 54 54 53 53 54 56 56 57 51 51 50 50 50 52 52 51 54 52 54 55 56 58 57 61 60
65 61 59 56 56 55 57 56 59 59 57 55 54 54 54 54 52 52 53 54 56 57 55 51 51 51 53 50 50 51 52 56 54 52 51 49 51 53 55 58 60 61 64
61 60 57 59 56 59 56 59 58 57 54 53 53 53 53 52 52 52 53 54 55 55 51 51 51 51 51 50 53 50 50 50 52 48 47 47 47 50 50 51 53 55 58
58 58 56 58 59 59 57 57 55 52 52 52 52 52 51 52 53 48 49 49 49 48 49 51 52 55 57 54 50 47 48 47 46 45 45 45 46 47 46 48 48 51 53
58 57 59 59 58 55 52 51 51 50 50 50 50 50 48 53 50 51 50 45 46 46 46 47 49 51 51 53 53 53 51 45 42 41 42 41 43 46 46 46 47 45 43
60 60 58 56 53 51 51 50 49 47 47 47 48 48 47 46 48 48 50 45 45 44 44 44 47 52 48 49 49 50 50 51 51 44 41 41 42 45 44 43 44 44 44
56 56 56 54 52 50 49 47 46 45 46 45 46 47 46 47 48 47 48 44 43 44 44 44 43 46 49 48 44 45 45 45 46 48 43 43 45 47 47 50 45 45 47
54 54 53 52 50 49 48 47 46 46 45 45 46 45 45 44 47 46 45 43 43 42 45 45 46 49 48 46 44 42 42 44 51 51 50 48 47 47 50 51 48 45 43
54 53 53 52 50 49 48 47 46 45 45 45 46 45 48 44 46 46 44 42 40 41 42 44 48 47 46 45 41 40 39 43 42 44 47 49 49 48 50 46 47 46 46
55 53 52 51 50 49 47 46 45 42 43 42 43 43 44 44 43 45 45 41 40 40 41 43 43 45 44 43 44 41 40 42 43 39 41 42 43 43 44 44 44 44 45
54 53 51 49 52 50 46 44 43 42 41 40 39 40 41 41 45 44 44 43 45 39 41 41 42 43 43 44 45 44 44 43 40 40 40 42 42 42 43 44 47 45 45
51 49 48 49 49 48 45 43 42 42 40 40 39 37 38 40 39 43 43 42 44 41 40 44 43 43 43 43 45 45 44 40 39 38 38 40 42 42 44 48 50 51 50
48 47 47 47 46 46 46 44 42 41 40 41 39 38 37 38 39 39 40 38 42 41 43 41 43 43 44 44 42 42 41 41 40 38 41 41 42 44 45 47 45 42 44
48 47 47 47 46 45 45 45 44 42 43 41 40 39 38 38 40 41 39 39 38 40 39 39 39 38 38 38 39 40 40 43 42 42 42 43 44 45 45 45 42 43 44
47 46 46 45 44 44 44 44 44 44 43 42 42 42 41 41 41 41 41 40 39 39 38 37 37 37 38 38 37 38 39 42 39 40 40 42 43 43 43 45 43 39 42
47 46 45 46 44 44 43 43 43 43 42 42 41 41 40 42 41 40 40 39 39 40 38 37 37 38 38 39 38 37 37 39 40 39 39 39 40 42 42 42 42 40 39
47 46 46 44 44 43 43 43 42 41 41 41 41 41 42 40 40 40 39 39 40 40 38 38 38 39 39 39 39 37 37 38 39 39 38 39 40 39 39 39 40 39 38
47 46 46 44 43 44 43 42 43 43 43 42 40 41 41 41 40 39 39 39 39 39 38 39 39 39 40 40 39 39 38 38 37 37 37 36 38 38 38 37 38 37 37
48 47 45 44 44 44 43 43 43 42 42 41 41 41 41 39 41 41 42 41 39 39 40 40 40 40 40 40 39 38 38 37 36 35 35 35 36 36 36 36 38 37 36
47 46 42 45 44 44 44 44 44 43 43 42 42 42 38 41 41 40 41 41 41 41 41 40 40 41 41 40 39 38 38 37 35 34 34 34 35 34 35 35 36 36 36
47 45 45 45 45 46 44 45 45 45 44 43 42 43 35 40 41 41 41 42 43 42 42 41 41 41 41 41 40 38 37 36 34 33 32 33 33 33 34 34 35 36 36
47 47 46 45 46 43 44 44 44 44 44 44 43 44 43 42 41 42 43 43 43 42 42 41 41 41 41 40 40 38 37 36 34 33 32 31 30 31 32 32 34 35 35
47 48 47 46 46 44 45 44 45 42 45 45 44 44 43 43 42 43 43 43 43 43 43 42 42 43 42 41 39 38 37 36 34 33 33 30 30 30 31 32 33 35 36
47 47 46 45 45 45 45 45 45 45 46 46 45 45 44 44 43 44 44 43 43 43 43 43 43 44 45 44 40 39 36 34 34 32 31 31 31 32 32 33 35 35 35
46 46 46 45 45 45 45 45 45 46 46 47 46 45 45 45 45 45 45 44 43 44 44 43 45 45 45 45 42 38 35 33 34 32 31 31 32 33 33 34 35 35 36
MSLP
1019.60 1020.12 1020.58 1020.95 1021.26 1021.66 1021.95 1022.23 1022.45 1022.38 1022.40 1022.52 1022.36 1022.24 1022.15 1022.02 1021.78 1021.66 1021.41 1021.25 1021.07 1020.88 1020.53 1020.26 1019.93 1019.49 1019.36 1019.02 1018.69 1018.40 1018.19 1018.05 1017.85 1017.06 1016.26 1015.65 1014.93 1014.43 1013.56 1012.85 1012.32 1011.83 1011.40
1019.42 1019.87 1020.35 1020.81 1021.58 1022.05 1022.16 1022.23 1022.37 1022.42 1022.38 1022.43 1022.52 1022.39 1022.32 1022.24 1022.07 1021.91 1021.77 1021.54 1021.32 1021.06 1020.74 1020.40 1020.00 1019.64 1019.38 1019.08 1018.87 1018.71 1018.40 1018.01 1017.91 1017.45 1016.76 1016.16 1015.51 1014.88 1014.17 1013.53 1012.94 1012.24 1011.79
1018.64 1019.83 1020.88 1021.02 1021.74 1022.31 1022.25 1022.55 1022.15 1022.45 1022.58 1022.61 1022.46 1022.48 1022.39 1022.30 1022.29 1022.14 1021.90 1021.63 1021.35 1021.09 1020.92 1020.73 1020.30 1019.85 1019.35 1019.15 1018.95 1018.73 1018.42 1017.94 1017.68 1017.48 1017.15 1016.50 1015.86 1015.22 1014.43 1013.93 1013.30 1012.67 1011.95
1018.81 1019.86 1020.48 1021.73 1021.83 1021.87 1022.40 1022.34 1022.46 1022.56 1022.59 1022.78 1022.64 1022.52 1022.56 1022.57 1022.60 1022.48 1022.32 1022.06 1021.69 1021.32 1021.03 1020.77 1020.40 1019.99 1019.64 1019.27 1019.05 1018.86 1018.41 1018.08 1017.72 1017.47 1017.14 1016.62 1016.15 1015.55 1014.90 1014.34 1013.46 1012.98 1012.39
1019.71 1020.40 1020.97 1021.62 1021.95 1022.23 1022.64 1022.69 1022.93 1022.98 1022.98 1022.84 1022.83 1022.85 1022.86 1022.88 1022.90 1022.77 1022.56 1022.31 1022.02 1021.63 1021.22 1020.95 1020.54 1020.13 1019.81 1019.53 1019.30 1018.99 1018.60 1018.33 1017.96 1017.75 1017.43 1016.99 1016.45 1015.91 1015.57 1014.89 1014.36 1013.67 1012.81
1019.94 1020.62 1021.37 1021.68 1022.07 1022.49 1022.95 1023.17 1023.17 1023.21 1023.28 1023.22 1023.15 1023.18 1023.12 1023.13 1023.03 1022.88 1022.64 1022.45 1022.14 1021.93 1021.73 1021.24 1020.71 1020.34 1020.07 1019.71 1019.27 1018.94 1018.72 1018.49 1018.19 1018.03 1017.73 1017.35 1016.71 1016.09 1015.54 1015.19 1014.66 1014.15 1013.63
1019.90 1020.42 1021.20 1021.88 1022.58 1023.01 1023.10 1023.22 1023.37 1023.48 1023.50 1023.46 1023.31 1023.32 1023.31 1023.24 1023.13 1022.98 1022.64 1022.52 1022.40 1022.27 1021.97 1021.51 1020.99 1020.47 1020.23 1019.93 1019.48 1019.05 1018.58 1018.19 1017.95 1017.86 1017.70 1017.26 1016.74 1015.95 1015.69 1015.07 1014.46 1014.11 1013.51
1020.27 1020.93 1021.60 1022.23 1022.85 1023.21 1023.36 1023.42 1023.49 1023.53 1023.59 1023.56 1023.43 1023.35 1023.29 1023.29 1023.17 1023.03 1022.82 1022.77 1022.64 1022.37 1022.05 1021.58 1021.14 1020.69 1020.32 1020.04 1019.68 1019.23 1018.69 1018.17 1017.71 1017.43 1017.34 1016.89 1016.39 1015.73 1015.29 1014.69 1014.21 1013.92 1013.17
1020.69 1021.34 1021.94 1022.43 1022.95 1023.19 1023.29 1023.42 1023.48 1023.54 1023.58 1023.54 1023.53 1023.38 1023.39 1023.43 1023.32 1023.27 1023.18 1023.02 1022.78 1022.45 1022.05 1021.56 1021.13 1020.71 1020.23 1019.95 1019.70 1019.40 1018.81 1018.07 1017.16 1016.80 1016.60 1016.22 1015.74 1015.24 1014.79 1014.37 1014.02 1013.78 1013.40
1020.85 1021.45 1021.99 1022.38 1022.67 1023.05 1023.29 1023.45 1023.53 1023.60 1023.70 1023.49 1023.58 1023.57 1023.60 1023.68 1023.55 1023.44 1023.31 1023.15 1022.93 1022.54 1022.03 1021.53 1021.02 1020.59 1020.16 1019.66 1019.48 1019.33 1018.92 1018.01 1017.47 1016.98 1016.35 1015.84 1015.53 1015.24 1014.65 1014.53 1014.32 1014.02 1013.44
1020.77 1021.30 1021.96 1022.38 1022.61 1022.96 1023.20 1023.35 1023.65 1023.91 1023.91 1023.89 1023.86 1023.97 1023.97 1023.79 1023.72 1023.44 1023.31 1023.17 1022.95 1022.71 1022.21 1021.58 1020.98 1020.51 1020.00 1019.45 1019.04 1018.90 1018.59 1017.96 1017.51 1017.29 1016.73 1016.03 1015.58 1015.33 1014.91 1014.48 1014.11 1013.97 1013.50
1020.84 1021.23 1021.79 1022.22 1022.59 1022.92 1023.14 1023.55 1023.81 1023.93 1024.26 1024.48 1024.57 1024.56 1024.33 1024.10 1023.72 1023.58 1023.40 1023.18 1022.82 1022.69 1022.25 1021.70 1021.26 1020.61 1020.02 1019.58 1019.24 1018.80 1018.30 1017.98 1017.69 1017.39 1017.03 1016.44 1015.98 1015.45 1014.74 1014.41 1013.86 1013.63 1013.28
1020.84 1021.19 1021.78 1022.20 1022.42 1022.85 1023.37 1023.82 1024.04 1024.09 1024.44 1024.67 1024.77 1024.75 1024.55 1024.22 1024.01 1023.59 1023.40 1023.17 1022.83 1022.53 1022.17 1021.69 1021.15 1020.73 1020.42 1019.97 1019.59 1019.14 1018.68 1018.36 1018.17 1017.86 1017.47 1016.77 1016.03 1015.35 1014.87 1014.11 1013.42 1013.17 1012.78
1021.24 1021.42 1021.85 1022.25 1022.49 1022.75 1023.13 1023.45 1023.85 1024.18 1024.33 1024.53 1024.66 1024.69 1024.51 1024.31 1023.95 1023.68 1023.43 1023.24 1022.88 1022.37 1021.94 1021.57 1021.37 1021.12 1020.73 1020.40 1019.89 1019.45 1019.07 1018.70 1018.48 1018.18 1017.68 1016.91 1016.06 1015.43 1014.86 1014.27 1013.98 1013.74 1013.31
1021.22 1021.91 1022.09 1022.13 1022.36 1022.73 1022.88 1023.10 1023.45 1023.50 1023.61 1024.08 1024.18 1024.27 1024.27 1024.16 1023.76 1023.45 1023.35 1023.24 1022.92 1022.48 1022.05 1021.79 1021.70 1021.62 1021.32 1020.87 1020.36 1019.82 1019.34 1018.96 1018.71 1018.32 1017.92 1017.36 1016.73 1016.07 1015.46 1014.70 1014.29 1013.98 1013.87
1021.17 1022.01 1022.19 1022.27 1022.49 1022.62 1022.83 1022.92 1022.79 1022.76 1023.01 1023.29 1023.32 1023.49 1023.62 1023.50 1023.33 1023.13 1023.00 1022.95 1022.70 1022.28 1022.29 1022.39 1022.24 1022.01 1021.65 1021.25 1020.84 1020.36 1019.81 1019.52 1019.25 1018.85 1018.48 1017.99 1017.50 1016.90 1016.24 1015.37 1014.91 1014.59 1014.23
1020.82 1021.68 1021.89 1022.09 1022.30 1022.46 1022.72 1022.80 1022.91 1022.78 1022.91 1023.05 1023.08 1023.03 1023.20 1023.18 1023.00 1023.00 1022.98 1022.84 1022.52 1022.35 1022.66 1022.54 1022.36 1022.09 1021.74 1021.37 1021.07 1020.80 1020.47 1020.01 1019.56 1019.24 1018.93 1018.55 1018.00 1017.44 1016.83 1016.27 1015.62 1015.06 1014.70
1020.62 1021.21 1021.60 1021.87 1022.04 1022.26 1022.37 1022.40 1022.58 1022.84 1023.05 1023.03 1022.80 1022.89 1022.49 1022.81 1022.80 1022.70 1022.74 1022.69 1022.76 1022.55 1022.67 1022.53 1022.28 1022.00 1021.69 1021.43 1021.13 1020.98 1020.57 1020.12 1019.81 1019.54 1019.22 1018.84 1018.41 1018.03 1017.48 1016.95 1016.38 1015.89 1015.51
1020.51 1020.99 1021.13 1021.41 1021.71 1021.82 1021.85 1021.88 1022.02 1022.27 1022.30 1022.43 1022.56 1022.58 1022.35 1022.31 1022.36 1022.35 1022.33 1022.55 1022.70 1022.64 1022.50 1022.23 1021.98 1021.77 1021.53 1021.29 1021.07 1020.86 1020.65 1020.42 1020.15 1019.82 1019.52 1019.20 1018.77 1018.35 1017.92 1017.56 1017.00 1016.51 1016.03
1020.15 1020.41 1020.80 1021.19 1021.38 1021.42 1021.51 1021.62 1021.78 1021.95 1021.96 1022.12 1022.34 1022.41 1022.26 1022.31 1022.37 1022.35 1022.18 1022.22 1022.31 1022.24 1022.05 1021.90 1021.71 1021.52 1021.34 1021.18 1021.03 1020.90 1020.71 1020.51 1020.30 1020.03 1019.74 1019.41 1019.04 1018.67 1018.29 1017.96 1017.44 1017.06 1016.63
1019.92 1020.28 1020.54 1020.87 1021.02 1021.14 1021.24 1021.37 1021.29 1021.48 1021.63 1021.80 1021.85 1021.75 1021.69 1021.98 1022.01 1022.03 1021.89 1021.85 1021.68 1021.61 1021.54 1021.44 1021.35 1021.20 1021.03 1020.90 1020.80 1020.72 1020.62 1020.51 1020.31 1020.07 1019.81 1019.50 1019.15 1018.81 1018.38 1017.97 1017.59 1017.17 1016.79
1019.57 1019.91 1020.16 1020.35 1020.57 1020.79 1020.88 1020.85 1020.92 1021.09 1021.27 1021.49 1021.46 1021.28 1021.29 1021.59 1021.56 1021.46 1021.32 1021.18 1020.91 1020.82 1020.73 1020.77 1020.81 1020.63 1020.40 1020.32 1020.23 1020.31 1020.35 1020.28 1020.09 1019.88 1019.64 1019.41 1019.15 1018.81 1018.42 1018.01 1017.52 1017.05 1016.64
1019.29 1019.67 1019.86 1019.99 1020.15 1020.37 1020.70 1020.47 1020.59 1020.62 1020.71 1020.82 1020.84 1020.84 1020.92 1021.01 1020.99 1020.82 1020.66 1020.40 1020.24 1020.21 1020.03 1020.12 1020.14 1020.00 1019.62 1019.56 1019.57 1019.60 1019.67 1019.66 1019.60 1019.53 1019.32 1019.13 1018.97 1018.70 1018.34 1017.97 1017.52 1017.05 1016.63
1018.88 1019.26 1019.49 1019.66 1019.86 1019.89 1019.93 1020.04 1020.03 1020.00 1020.16 1020.28 1020.36 1020.36 1020.34 1020.25 1020.25 1020.06 1019.87 1019.71 1019.61 1019.36 1019.30 1019.26 1019.20 1019.00 1018.87 1018.76 1018.84 1019.05 1019.04 1019.03 1019.09 1019.10 1018.99 1018.86 1018.66 1018.40 1018.15 1017.75 1017.27 1016.76 1016.38
1018.57 1018.74 1019.01 1019.26 1019.46 1019.57 1019.56 1019.58 1019.56 1019.60 1019.61 1019.58 1019.69 1019.65 1019.49 1019.46 1019.45 1019.26 1019.08 1018.97 1018.79 1018.68 1018.45 1018.38 1018.30 1018.09 1017.91 1017.94 1018.11 1018.39 1018.55 1018.51 1018.60 1018.62 1018.70 1018.53 1018.30 1018.05 1017.64 1017.30 1016.88 1016.44 1015.98
1018.17 1018.38 1018.66 1018.85 1019.01 1019.04 1019.11 1018.98 1019.00 1019.07 1019.04 1018.94 1018.88 1018.81 1018.72 1018.67 1018.47 1018.33 1018.17 1018.09 1017.95 1017.78 1017.56 1017.45 1017.21 1017.04 1016.88 1016.96 1017.14 1017.35 1017.66 1017.77 1017.85 1017.70 1017.72 1018.09 1017.80 1017.47 1017.19 1016.78 1016.32 1015.98 1015.56
Wind_Speed
10 7 7 6 6 5 6 6 6 5 6 6 5 6 6 6 6 6 7 6 6 6 6 6 7 7 5 4 4 3 3 2 2 4 2 5 6 8 10 7 7 7 7
8 6 7 5 6 6 6 6 5 6 5 4 5 5 5 5 5 5 5 5 6 7 6 8 9 6 7 5 3 5 3 3 2 4 3 4 5 7 8 8 6 6 6
9 7 7 9 8 6 5 4 5 4 5 4 5 5 6 5 5 5 5 5 5 6 7 7 7 6 6 4 3 4 4 4 1 2 4 2 3 4 7 7 8 7 7
10 11 11 7 6 8 3 6 5 4 5 4 5 5 5 6 6 6 6 7 7 7 6 6 6 7 6 5 4 5 5 5 5 3 3 4 2 4 3 6 9 4 8
12 11 9 7 6 5 5 6 5 5 4 5 5 5 5 5 4 6 6 6 6 7 7 6 6 7 11 9 4 6 6 5 4 5 4 3 3 5 5 4 4 7 6
11 11 8 6 6 7 6 6 6 6 5 5 4 4 4 2 5 8 7 5 6 6 6 7 7 6 8 12 13 15 9 5 4 3 3 4 5 6 3 4 6 4 4
11 9 8 9 8 6 6 6 5 4 3 4 3 2 3 0 5 7 10 5 5 6 6 6 7 3 6 6 11 13 11 13 9 1 3 4 4 4 5 5 5 4 4
9 10 10 8 7 6 5 5 3 2 3 2 3 3 2 2 5 7 9 6 5 6 6 7 5 5 5 6 6 7 7 6 6 4 4 7 6 9 6 4 5 6 5
10 9 8 8 7 6 5 4 2 3 3 2 2 4 4 2 6 7 6 6 5 6 6 6 6 6 7 10 6 7 8 9 9 10 10 11 12 10 6 4 4 2 4
10 8 7 6 7 6 4 3 2 3 3 4 4 4 3 1 5 6 4 3 5 5 6 6 9 8 11 13 5 5 6 8 6 10 11 9 8 7 9 4 4 3 2
10 9 7 6 7 6 4 2 4 4 5 6 6 3 3 2 4 7 5 3 3 4 4 6 6 12 14 14 10 4 6 7 9 5 6 5 5 5 5 5 4 3 3
9 8 7 7 4 4 6 4 4 5 6 5 4 3 3 3 5 6 6 6 7 3 5 6 6 14 13 11 9 14 13 5 3 5 4 4 4 4 5 5 5 5 4
7 8 7 6 6 5 5 4 3 4 4 2 2 2 3 3 4 7 6 8 8 5 4 10 13 13 12 9 12 12 8 5 5 5 5 4 4 4 6 5 4 4 4
7 7 6 6 6 4 3 3 4 3 3 2 1 2 3 3 4 4 4 4 6 6 8 8 8 5 5 6 6 7 5 4 4 4 6 5 5 5 5 3 3 4 3
7 5 6 5 6 4 4 4 4 5 5 5 3 3 2 4 4 4 5 5 5 5 7 3 4 4 4 5 5 5 5 6 7 6 6 7 7 7 7 6 3 3 2
6 4 4 4 4 3 3 2 6 8 8 9 9 6 4 8 9 9 10 9 9 10 3 3 3 3 4 4 4 5 5 7 5 5 5 6 7 7 7 8 6 3 3
7 6 4 5 4 3 3 3 3 3 2 7 8 9 9 10 9 10 9 10 9 4 3 2 1 2 3 4 4 4 4 4 4 4 4 5 6 7 8 7 8 5 4
7 8 5 4 3 2 3 4 3 3 3 3 8 10 11 7 10 10 7 4 3 4 1 1 2 2 3 3 4 3 4 4 4 4 5 5 6 6 7 8 8 5 4
6 4 5 3 3 4 3 3 3 3 4 4 1 1 8 7 9 6 4 2 2 2 2 1 1 2 2 3 3 3 3 4 4 4 4 4 5 5 6 5 6 6 4
5 7 6 3 3 1 2 2 4 3 2 4 4 4 2 1 0 2 1 2 3 3 3 2 2 2 2 2 2 3 3 4 4 4 4 4 4 4 5 5 6 5 4
4 4 6 4 2 2 3 5 3 1 3 5 5 5 6 4 3 3 4 4 4 4 4 4 4 3 3 2 2 1 2 3 4 4 4 4 4 5 5 4 4 5 4
4 3 4 5 3 3 5 4 4 3 4 4 5 5 6 3 3 4 5 5 5 5 5 5 4 5 5 4 4 3 1 3 4 3 4 4 4 4 4 4 5 4 4
5 2 1 2 3 5 5 4 4 4 5 5 5 4 4 5 5 5 6 6 5 5 5 5 5 5 5 5 4 5 4 3 4 3 3 4 4 4 4 4 5 5 4
5 4 3 2 2 3 5 4 5 5 5 5 5 5 5 5 5 7 6 6 5 5 5 6 6 8 6 6 5 4 4 4 3 3 4 3 4 4 4 4 5 6 6
5 4 3 4 4 4 5 5 4 5 5 5 5 5 5 5 5 6 6 6 6 6 7 6 6 9 10 10 8 9 7 6 4 3 3 3 4 6 5 4 6 6 7
5 5 4 4 4 4 5 4 5 5 5 5 5 6 6 6 6 6 6 6 6 6 7 6 9 12 12 9 11 11 9 7 6 6 4 3 4 4 4 5 7 5 7
Wind_Direction
174 169 160 163 160 109 99 88 81 69 49 42 34 31 16 6 0 4 351 17 7 353 349 351 332 344 340 329 331 330 351 12 289 301 286 318 328 350 338 349 352 1 347
167 160 174 139 98 98 100 104 87 80 63 53 27 30 8 1 7 28 13 358 0 351 343 346 340 348 335 343 353 346 345 337 322 314 301 328 339 336 330 341 341 353 341
153 125 95 113 117 117 117 100 109 77 62 26 33 23 7 9 25 15 17 352 349 347 350 335 319 327 323 336 344 350 333 333 304 278 307 281 288 326 337 337 343 341 342
116 112 113 114 118 109 109 89 70 63 59 29 32 37 26 47 29 4 354 341 346 344 342 326 328 330 347 345 350 336 333 337 336 330 308 296 299 310 322 331 334 347 330
103 106 116 129 113 90 75 78 66 54 42 35 33 44 51 55 23 4 350 342 342 332 346 342 344 358 13 12 1 335 340 335 342 326 315 325 308 344 344 321 303 319 319
126 132 150 119 94 86 95 95 77 46 30 30 36 52 71 58 1 6 6 349 338 354 349 337 333 11 357 355 354 348 343 339 322 309 319 321 296 308 297 299 307 317 321
133 134 113 112 113 124 111 86 70 60 19 19 11 59 121 135 22 12 358 2 360 355 340 327 321 349 351 337 342 339 337 340 341 266 302 291 288 290 299 279 273 255 252
119 116 123 119 119 112 103 91 71 45 34 21 21 49 111 39 17 13 2 1 358 343 334 328 328 316 333 337 318 324 318 312 303 309 278 280 278 296 270 276 280 288 285
117 122 129 128 126 122 95 79 63 50 20 360 32 54 72 9 0 2 8 357 342 327 320 320 325 321 313 332 324 316 317 310 309 304 307 301 307 312 301 320 341 1 315
129 123 125 126 125 117 112 99 61 51 22 0 75 75 81 346 307 355 7 347 343 334 325 310 315 330 326 317 311 301 301 289 307 326 326 325 324 315 330 339 307 312 330
128 127 128 143 126 128 108 86 77 60 55 40 69 41 4 282 319 339 7 352 325 323 316 322 317 320 320 317 318 303 262 294 316 318 306 306 314 313 321 322 321 290 296
140 131 125 137 137 119 113 115 91 78 59 44 47 349 314 336 7 360 359 360 350 333 315 317 315 319 334 1 15 360 10 24 353 349 340 318 316 307 299 306 302 306 285
133 123 127 132 128 128 127 128 110 95 88 21 15 344 323 324 333 345 345 346 343 342 314 315 328 356 358 4 0 4 3 4 350 358 325 312 279 283 297 314 308 286 311
136 141 146 144 136 137 128 161 149 147 150 169 322 341 317 325 323 330 329 342 342 339 339 332 328 339 2 2 360 354 347 352 356 334 332 314 320 336 323 303 322 341 335
145 150 159 169 154 176 208 184 185 213 177 175 206 192 237 297 267 272 293 336 323 296 316 352 13 352 353 352 345 346 345 3 6 347 356 352 352 348 343 337 326 315 348
149 156 180 168 168 188 194 269 229 221 200 201 188 177 230 237 276 281 311 325 317 320 37 10 358 325 341 344 352 339 353 5 353 355 351 352 352 348 343 346 354 328 321
147 164 151 154 178 168 191 200 241 334 203 211 225 238 224 246 280 289 305 323 336 44 42 13 341 324 326 335 346 344 340 339 340 351 342 340 345 348 351 349 349 345 351
147 168 165 176 172 208 242 242 212 225 247 240 248 239 265 239 276 293 296 311 9 22 3 339 349 328 333 347 347 351 341 356 358 350 350 347 347 345 348 350 353 351 23
149 166 180 182 189 217 251 245 223 224 247 206 229 276 266 284 281 306 149 137 179 218 252 8 273 318 333 342 349 360 358 351 342 341 343 341 338 342 344 343 348 346 358
173 196 180 200 229 241 250 171 189 173 161 182 193 219 269 80 318 323 226 206 192 213 219 234 250 281 318 334 345 354 349 349 341 337 332 329 324 327 329 334 333 338 327
171 190 198 192 199 235 211 215 180 150 192 195 214 216 220 193 206 226 215 225 214 210 213 218 226 238 258 268 281 313 338 330 328 324 322 321 324 330 320 308 312 309 315
160 220 201 216 183 222 204 214 186 178 176 206 217 230 215 228 228 237 226 233 224 214 208 200 212 219 225 225 224 218 266 311 306 309 311 313 314 310 310 307 305 307 312
150 146 221 239 231 216 236 215 227 204 222 221 215 219 208 229 237 230 228 231 224 220 214 204 213 228 232 227 217 191 195 238 257 262 283 305 309 306 308 305 309 310 308
169 180 199 227 277 237 208 214 236 215 215 229 221 219 217 221 228 232 231 236 235 231 220 213 214 223 227 224 201 206 199 204 222 254 275 289 298 301 297 297 295 294 298
192 213 225 254 257 242 233 231 233 237 231 223 221 213 227 234 243 244 240 236 233 230 232 221 221 232 232 224 195 195 209 208 222 246 271 270 279 288 278 274 285 296 295
192 207 224 250 263 242 237 233 226 221 220 223 221 217 220 228 234 235 236 239 238 236 235 231 232 230 234 221 199 188 196 201 213 204 201 270 289 293 289 289 296 295 287